K5WRW-WX Weather Reports


time (UTC)temp
F
wind
direction
speed
knots
gust
knots
rain 1hr
in
rain 24hr
in
rain mn
in
humidity
%
barometer
mb
20260506135516 52 23 7.8 11.3 0.00 0.00 0.00 82 1012.8
20260506134516 52 23 9.6 13.9 0.00 0.00 0.00 82 1012.6
20260506133516 52 0 7.0 10.4 0.00 0.00 0.00 83 1012.4
20260506132516 52 0 4.3 6.1 0.00 0.00 0.00 84 1011.9
20260506131516 52 0 3.5 6.1 0.00 0.00 0.00 85 1012.2
20260506130516 51 0 7.0 8.7 0.00 0.00 0.00 85 1012.0
20260506125516 51 23 6.1 10.4 0.00 0.00 0.00 86 1012.1
20260506124517 51 23 5.2 7.8 0.00 0.00 0.00 86 1012.1
20260506123516 51 23 5.2 7.8 0.00 0.00 0.00 86 1012.1
20260506122516 51 338 7.0 8.7 0.00 0.00 0.00 87 1012.0
20260506121515 50 0 8.7 11.3 0.00 0.00 0.00 88 1011.7
20260506120516 50 0 7.0 10.4 0.00 0.00 0.00 88 1011.5
20260506115516 50 23 8.7 13.0 0.00 0.00 0.00 88 1011.4
20260506114517 50 0 3.5 6.1 0.00 0.00 0.00 88 1011.2
20260506113516 50 338 7.8 12.2 0.00 0.00 0.00 87 1011.2
20260506112515 50 338 7.0 9.6 0.00 0.00 0.00 87 1010.9
20260506111516 51 338 8.7 12.2 0.00 0.00 0.00 86 1011.0
20260506110515 51 0 3.5 7.0 0.00 0.00 0.00 86 1011.0
20260506105515 51 338 5.2 8.7 0.00 0.00 0.00 85 1011.1
20260506104515 51 338 6.1 10.4 0.00 0.00 0.00 84 1010.8
20260506103515 52 0 7.8 13.9 0.00 0.00 0.00 84 1010.8
20260506102516 52 23 6.1 7.8 0.00 0.00 0.00 83 1010.7
20260506101516 52 338 7.0 9.6 0.00 0.00 0.00 82 1010.7
20260506100515 52 0 7.0 9.6 0.00 0.00 0.00 82 1010.3
20260506095515 52 0 7.8 11.3 0.00 0.00 0.00 81 1010.1
20260506094555 52 23 7.0 12.2 0.00 0.00 0.00 81 1009.9
20260506093515 52 0 8.7 13.0 0.00 0.00 0.00 80 1009.7
20260506092515 53 23 7.0 11.3 0.00 0.00 0.00 80 1009.5
20260506091515 53 0 7.0 9.6 0.00 0.00 0.00 80 1009.6
20260506090515 53 23 5.2 7.8 0.00 0.00 0.00 80 1009.7
20260506085537 53 338 4.3 6.1 0.00 0.00 0.00 79 1009.8
20260506084517 53 338 4.3 8.7 0.00 0.00 0.00 79 1009.7
20260506083517 53 0 7.0 11.3 0.00 0.00 0.00 79 1009.2
20260506082517 53 338 6.1 10.4 0.00 0.00 0.00 78 1009.1
20260506081517 53 23 6.1 8.7 0.00 0.00 0.00 78 1009.2
20260506080517 53 0 5.2 8.7 0.00 0.00 0.00 78 1009.4
20260506073517 54 0 7.8 10.4 0.00 0.00 0.00 78 1008.7
20260506072517 54 23 5.2 7.8 0.00 0.00 0.00 77 1008.6
20260506071517 54 45 5.2 8.7 0.00 0.00 0.00 77 1008.9
20260506070517 54 0 5.2 7.8 0.00 0.00 0.00 77 1008.8
20260506061517 54 23 6.1 11.3 0.00 0.00 0.00 76 1009.0
20260506060537 55 0 7.0 11.3 0.00 0.00 0.00 76 1009.1
20260506050557 55 0 6.1 8.7 0.00 0.00 0.00 78 1008.9
20260506044516 56 0 7.0 12.2 0.00 0.00 0.00 78 1008.8
20260506043516 56 0 7.8 10.4 0.00 0.00 0.00 78 1008.7
20260506042536 56 23 4.3 7.8 0.00 0.00 0.00 78 1008.8
20260506041536 56 0 6.1 9.6 0.00 0.00 0.00 78 1008.9
20260506040516 57 23 7.0 8.7 0.00 0.00 0.00 79 1008.6
20260506035516 57 338 7.0 11.3 0.00 0.00 0.00 79 1008.6
20260506034537 57 0 7.0 9.6 0.00 0.00 0.00 79 1008.6
20260506033516 57 0 7.0 11.3 0.00 0.00 0.00 79 1008.4
20260506032516 58 0 5.2 8.7 0.00 0.00 0.00 79 1008.3
20260506031516 58 0 7.8 11.3 0.00 0.00 0.00 79 1008.2
20260506030516 58 23 6.1 9.6 0.00 0.00 0.00 79 1007.8
20260506025536 59 0 7.8 9.6 0.00 0.00 0.00 80 1007.7
20260506024516 60 0 7.0 11.3 0.00 0.00 0.00 80 1007.2
20260506023536 60 23 7.0 11.3 0.00 0.00 0.00 80 1006.7
20260506022516 60 0 6.1 10.4 0.00 0.00 0.00 80 1006.5
20260506021516 61 338 5.2 7.8 0.00 0.00 0.00 80 1006.2
20260506020516 61 0 5.2 7.8 0.00 0.00 0.00 80 1006.2
20260506015516 62 315 6.1 8.7 0.00 0.00 0.00 81 1006.2
20260506014516 62 23 3.5 9.6 0.00 0.00 0.00 81 1005.7
20260506013536 62 338 7.0 11.3 0.00 0.00 0.00 80 1005.9
20260506012516 63 315 6.1 12.2 0.00 0.00 0.00 79 1005.4
20260506011516 64 0 7.8 10.4 0.00 0.00 0.00 79 1005.2
20260506010536 64 0 7.8 11.3 0.00 0.00 0.00 78 1005.0
20260506005516 66 0 10.4 16.5 0.00 0.00 0.00 78 1004.9
20260506004516 67 0 6.1 10.4 0.00 0.00 0.00 78 1004.6
20260506003516 68 338 4.3 6.1 0.00 0.00 0.00 77 1004.3
20260506002516 68 338 4.3 8.7 0.00 0.00 0.00 76 1004.4
20260506001515 69 315 6.1 17.4 0.00 0.00 0.00 76 1004.4
20260506000516 69 315 8.7 12.2 0.00 0.00 0.00 76 1004.8
20260505235515 69 338 6.1 9.6 0.00 0.00 0.00 75 1003.8
20260505234516 70 315 9.6 13.0 0.00 0.00 0.00 74 1004.5
20260505233516 71 338 6.1 9.6 0.00 0.00 0.00 74 1004.3
20260505232516 72 338 6.1 11.3 0.00 0.00 0.00 74 1004.2
20260505231515 73 315 10.4 15.6 0.00 0.00 0.00 73 1004.2
20260505230516 75 315 8.7 12.2 0.00 0.00 0.00 72 1003.8
20260505225515 76 315 6.1 9.6 0.00 0.00 0.00 71 1003.8
20260505224516 77 315 11.3 13.9 0.00 0.00 0.00 69 1003.6
20260505223515 77 315 6.1 8.7 0.00 0.00 0.00 67 1003.4
20260505222516 78 315 7.0 9.6 0.00 0.00 0.00 64 1003.1
20260505221515 79 293 7.8 12.2 0.00 0.00 0.00 60 1002.9
20260505220515 79 293 8.7 10.4 0.00 0.00 0.00 57 1002.9
20260505215515 80 270 9.6 11.3 0.00 0.00 0.00 56 1002.7
20260505214516 80 293 7.8 11.3 0.00 0.00 0.00 55 1002.6
20260505213515 81 293 7.8 10.4 0.00 0.00 0.00 53 1002.9
20260505212515 82 293 6.1 8.7 0.00 0.00 0.00 52 1003.1
20260505211515 83 315 10.4 17.4 0.00 0.00 0.00 52 1002.9
20260505210515 85 293 9.6 13.0 0.00 0.00 0.00 54 1002.9
20260505205515 86 0 7.8 12.2 0.00 0.00 0.00 55 1003.0
20260505204515 86 0 7.8 11.3 0.00 0.00 0.00 55 1003.1
20260505203557 85 0 7.0 8.7 0.00 0.00 0.00 62 1002.9
20260505202537 85 0 7.8 10.4 0.00 0.00 0.00 62 1003.1
20260505201515 84 0 8.7 10.4 0.00 0.00 0.00 63 1003.0
20260505200517 83 0 6.1 7.8 0.00 0.00 0.00 64 1003.0
20260505195517 83 0 7.8 10.4 0.00 0.00 0.00 64 1003.2
20260505194537 83 0 7.0 12.2 0.00 0.00 0.00 65 1003.2
20260505193517 83 0 10.4 18.2 0.00 0.00 0.00 64 1003.4
20260505192517 82 0 7.8 13.0 0.00 0.00 0.00 64 1003.3
20260505191517 82 0 6.1 13.9 0.00 0.00 0.00 64 1003.1
20260505190517 83 0 8.7 11.3 0.00 0.00 0.00 63 1002.9
20260505185517 83 0 5.2 8.7 0.00 0.00 0.00 63 1002.8
20260505184517 82 0 9.6 13.0 0.00 0.00 0.00 64 1002.8
20260505183537 81 0 7.8 11.3 0.00 0.00 0.00 67 1002.9
20260505182517 81 0 7.0 9.6 0.00 0.00 0.00 67 1003.1
20260505181517 81 0 7.0 10.4 0.00 0.00 0.00 68 1003.2
20260505180517 80 0 6.1 7.8 0.00 0.00 0.00 70 1003.1
20260505175517 79 0 10.4 17.4 0.00 0.00 0.00 71 1003.1
20260505174517 79 0 4.3 7.0 0.00 0.00 0.00 72 1003.0
20260505173517 79 0 8.7 12.2 0.00 0.00 0.00 73 1002.8
20260505172517 78 0 7.0 11.3 0.00 0.00 0.00 74 1002.8
20260505171517 78 0 7.8 15.6 0.00 0.00 0.00 74 1002.9
20260505170517 78 0 7.0 13.0 0.00 0.00 0.00 75 1002.5
20260505165537 77 0 8.7 13.0 0.00 0.00 0.00 75 1002.7
20260505164517 77 0 7.8 11.3 0.00 0.00 0.00 75 1002.9
20260505163537 77 0 7.0 9.6 0.00 0.00 0.00 76 1002.8
20260505162517 77 0 10.4 13.9 0.00 0.00 0.00 76 1002.9
20260505161520 76 0 8.7 12.2 0.00 0.00 0.00 76 1002.6
20260505160519 77 0 7.8 13.0 0.00 0.00 0.00 76 1002.4
20260505152516 76 0 11.3 17.4 0.00 0.00 0.00 76 1002.6
20260505151527 76 0 11.3 20.0 0.00 0.00 0.00 77 1002.5
20260505150517 76 0 10.4 16.5 0.00 0.00 0.00 78 1002.6
20260505140517 74 0 8.7 13.9 0.00 0.00 0.00 80 1002.0